• In Uzbekistan
  • List of Countries
  • For 7 days
  • Water Temperature
  • Satellite Maps
  • Weather Map
  • Weather Widgets
  • user-avatar
    Login

    Hourly Weather Satif

    Today, 25 May, Thursday

    Time Temperature Precipitation Wind Pressure Humidity
    00:00 +15°C° 0 mm 1 mps 672 mmHg 74%
    01:00 +15°C° 0 mm 1 mps 672 mmHg 73%
    02:00 +15°C° 0 mm 1 mps 672 mmHg 73%
    03:00 +15°C° 0 mm 1 mps 672 mmHg 72%
    04:00 +16°C° 0 mm 1 mps 672 mmHg 66%
    05:00 +19°C° 0 mm 1 mps 673 mmHg 61%
    06:00 +19°C° 0 mm 2 mps 673 mmHg 55%
    07:00 +23°C° 0 mm 2 mps 674 mmHg 49%
    08:00 +25°C° 0 mm 3 mps 675 mmHg 42%
    09:00 +27°C° 0 mm 3 mps 675 mmHg 36%
    10:00 +28°C° 0 mm 3 mps 675 mmHg 33%
    11:00 +29°C° 0 mm 3 mps 675 mmHg 31%
    12:00 +30°C° 0 mm 3 mps 675 mmHg 28%
    13:00 +30°C° 0.1 mm 3 mps 675 mmHg 30%
    14:00 +29°C° 0.1 mm 2 mps 674 mmHg 32%
    15:00 +29°C° 0.1 mm 2 mps 674 mmHg 33%
    16:00 +27°C° 0.1 mm 2 mps 673 mmHg 39%
    17:00 +26°C° 0.1 mm 1 mps 673 mmHg 45%
    18:00 +25°C° 0.1 mm 1 mps 673 mmHg 50%
    19:00 +23°C° 0.2 mm 1 mps 673 mmHg 55%
    20:00 +20°C° 0.2 mm 2 mps 673 mmHg 60%
    21:00 +19°C° 0.2 mm 2 mps 673 mmHg 66%
    22:00 +18°C° 0.1 mm 2 mps 673 mmHg 67%
    23:00 +18°C° 0.1 mm 2 mps 672 mmHg 68%

    Tomorrow, 26 May, Friday

    Time Temperature Precipitation Wind Pressure Humidity
    00:00 +18°C° 0.1 mm 2 mps 672 mmHg 69%
    01:00 +18°C° 0 mm 2 mps 672 mmHg 70%
    02:00 +18°C° 0 mm 2 mps 671 mmHg 71%
    03:00 +17°C° 0 mm 2 mps 671 mmHg 72%
    04:00 +19°C° 0 mm 1 mps 671 mmHg 69%
    05:00 +20°C° 0 mm 1 mps 671 mmHg 65%
    06:00 +21°C° 0 mm 1 mps 671 mmHg 61%
    07:00 +24°C° 0 mm 1 mps 672 mmHg 51%
    08:00 +27°C° 0 mm 2 mps 673 mmHg 40%
    09:00 +30°C° 0 mm 2 mps 674 mmHg 30%
    10:00 +31°C° 0 mm 2 mps 674 mmHg 28%
    11:00 +31°C° 0 mm 3 mps 674 mmHg 25%
    12:00 +33°C° 0 mm 3 mps 674 mmHg 23%
    13:00 +33°C° 0 mm 3 mps 674 mmHg 25%
    14:00 +31°C° 0 mm 3 mps 673 mmHg 26%
    15:00 +30°C° 0 mm 2 mps 673 mmHg 28%
    16:00 +29°C° 0.1 mm 2 mps 672 mmHg 33%
    17:00 +28°C° 0.1 mm 2 mps 672 mmHg 38%
    18:00 +26°C° 0.1 mm 1 mps 672 mmHg 43%
    19:00 +24°C° 0.1 mm 1 mps 672 mmHg 49%
    20:00 +22°C° 0.1 mm 1 mps 672 mmHg 55%
    21:00 +20°C° 0.1 mm 1 mps 672 mmHg 61%
    22:00 +20°C° 0.3 mm 1 mps 672 mmHg 63%
    23:00 +20°C° 0.3 mm 1 mps 672 mmHg 65%

    Day after tomorrow, 27 May, Saturday

    Time Temperature Precipitation Wind Pressure Humidity
    00:00 +20°C° 0.3 mm 1 mps 672 mmHg 66%
    01:00 +20°C° 0.1 mm 1 mps 672 mmHg 66%
    02:00 +20°C° 0.1 mm 1 mps 672 mmHg 67%
    03:00 +19°C° 0.1 mm 1 mps 671 mmHg 67%
    04:00 +20°C° 0 mm 1 mps 672 mmHg 63%
    05:00 +21°C° 0 mm 1 mps 672 mmHg 59%
    06:00 +22°C° 0 mm 1 mps 672 mmHg 56%
    07:00 +25°C° 0 mm 1 mps 673 mmHg 47%
    08:00 +27°C° 0 mm 1 mps 674 mmHg 39%
    09:00 +30°C° 0 mm 2 mps 675 mmHg 30%
    10:00 +31°C° 0 mm 2 mps 675 mmHg 28%
    11:00 +32°C° 0 mm 2 mps 675 mmHg 25%
    12:00 +34°C° 0 mm 2 mps 675 mmHg 23%
    13:00 +32°C° 0 mm 2 mps 675 mmHg 24%
    14:00 +32°C° 0 mm 2 mps 674 mmHg 26%
    15:00 +31°C° 0 mm 2 mps 674 mmHg 27%
    16:00 +30°C° 0.1 mm 2 mps 674 mmHg 32%
    17:00 +28°C° 0.1 mm 2 mps 673 mmHg 36%
    18:00 +27°C° 0.1 mm 2 mps 673 mmHg 41%
    19:00 +25°C° 0.4 mm 2 mps 673 mmHg 47%
    20:00 +23°C° 0.4 mm 2 mps 673 mmHg 53%
    21:00 +20°C° 0.4 mm 2 mps 673 mmHg 59%
    22:00 +20°C° 0.1 mm 2 mps 673 mmHg 59%
    23:00 +19°C° 0.1 mm 2 mps 672 mmHg 59%

    28 May, Sunday

    Time Temperature Precipitation Wind Pressure Humidity
    00:00 +20°C° 0.1 mm 1 mps 672 mmHg 59%
    01:00 +20°C° 0.1 mm 1 mps 672 mmHg 58%
    02:00 +20°C° 0.1 mm 1 mps 672 mmHg 57%
    03:00 +20°C° 0.1 mm 1 mps 672 mmHg 56%
    04:00 +20°C° 0 mm 2 mps 673 mmHg 55%
    05:00 +21°C° 0 mm 2 mps 673 mmHg 54%
    06:00 +23°C° 0 mm 2 mps 673 mmHg 52%
    07:00 +25°C° 0 mm 2 mps 674 mmHg 45%
    08:00 +28°C° 0 mm 2 mps 675 mmHg 38%
    09:00 +30°C° 0 mm 3 mps 676 mmHg 30%
    10:00 +33°C° 0 mm 3 mps 676 mmHg 27%
    11:00 +34°C° 0 mm 3 mps 676 mmHg 24%
    12:00 +35°C° 0 mm 3 mps 676 mmHg 21%
    13:00 +35°C° 0 mm 3 mps 676 mmHg 21%
    14:00 +34°C° 0 mm 3 mps 675 mmHg 21%
    15:00 +34°C° 0 mm 3 mps 675 mmHg 21%
    16:00 +31°C° 0 mm 3 mps 674 mmHg 27%
    17:00 +30°C° 0 mm 2 mps 674 mmHg 32%
    18:00 +28°C° 0 mm 2 mps 673 mmHg 37%
    19:00 +26°C° 0.2 mm 1 mps 673 mmHg 41%
    20:00 +24°C° 0.2 mm 1 mps 673 mmHg 45%
    21:00 +22°C° 0.2 mm 1 mps 673 mmHg 49%
    22:00 +21°C° 0.1 mm 1 mps 672 mmHg 49%
    23:00 +21°C° 0.1 mm 1 mps 672 mmHg 49%

    29 May, Monday

    Time Temperature Precipitation Wind Pressure Humidity
    00:00 +20°C° 0.1 mm 2 mps 671 mmHg 49%
    01:00 +19°C° 0 mm 2 mps 671 mmHg 49%
    02:00 +19°C° 0 mm 2 mps 671 mmHg 49%
    03:00 +19°C° 0 mm 2 mps 671 mmHg 49%
    04:00 +20°C° 0 mm 2 mps 671 mmHg 49%
    05:00 +21°C° 0 mm 2 mps 671 mmHg 48%
    06:00 +21°C° 0 mm 2 mps 672 mmHg 47%
    07:00 +24°C° 0 mm 2 mps 672 mmHg 42%
    08:00 +26°C° 0 mm 2 mps 673 mmHg 38%
    09:00 +28°C° 0 mm 3 mps 674 mmHg 33%
    10:00 +29°C° 0 mm 3 mps 674 mmHg 32%
    11:00 +30°C° 0 mm 3 mps 674 mmHg 31%
    12:00 +31°C° 0 mm 3 mps 674 mmHg 30%
    13:00 +30°C° 0 mm 3 mps 673 mmHg 33%
    14:00 +29°C° 0 mm 3 mps 673 mmHg 36%
    15:00 +29°C° 0 mm 3 mps 673 mmHg 38%
    16:00 +27°C° 0 mm 3 mps 672 mmHg 45%
    17:00 +26°C° 0 mm 2 mps 672 mmHg 52%
    18:00 +24°C° 0 mm 2 mps 672 mmHg 59%
    19:00 +23°C° 0.2 mm 1 mps 672 mmHg 64%
    20:00 +21°C° 0.2 mm 1 mps 672 mmHg 69%
    21:00 +20°C° 0.2 mm 1 mps 672 mmHg 74%
    22:00 +20°C° 0.5 mm 1 mps 671 mmHg 75%
    23:00 +19°C° 0.5 mm 1 mps 671 mmHg 76%

    30 May, Tuesday

    Time Temperature Precipitation Wind Pressure Humidity
    00:00 +19°C° 0.5 mm 1 mps 671 mmHg 77%
    01:00 +19°C° 0.7 mm 1 mps 671 mmHg 79%
    02:00 +18°C° 0.7 mm 1 mps 671 mmHg 82%
    03:00 +16°C° 0.7 mm 0 mps 671 mmHg 84%
    04:00 +16°C° 0.8 mm 0 mps 671 mmHg 82%
    05:00 +17°C° 0.8 mm 0 mps 672 mmHg 80%
    06:00 +17°C° 0.8 mm 0 mps 672 mmHg 78%
    07:00 +20°C° 0.6 mm 1 mps 673 mmHg 75%
    08:00 +20°C° 0.6 mm 1 mps 673 mmHg 72%
    09:00 +21°C° 0.6 mm 1 mps 673 mmHg 69%
    10:00 +22°C° 0.6 mm 1 mps 673 mmHg 66%
    11:00 +22°C° 0.6 mm 1 mps 674 mmHg 63%
    12:00 +23°C° 0.6 mm 1 mps 674 mmHg 60%
    13:00 +23°C° 0.4 mm 1 mps 673 mmHg 60%
    14:00 +23°C° 0.4 mm 1 mps 673 mmHg 61%
    15:00 +22°C° 0.4 mm 1 mps 673 mmHg 62%
    16:00 +22°C° 0.1 mm 1 mps 673 mmHg 66%
    17:00 +21°C° 0.1 mm 1 mps 673 mmHg 71%
    18:00 +20°C° 0.1 mm 1 mps 673 mmHg 76%
    19:00 +20°C° 0.6 mm 1 mps 673 mmHg 81%
    20:00 +19°C° 0.6 mm 1 mps 673 mmHg 85%
    21:00 +18°C° 0.6 mm 1 mps 673 mmHg 89%
    22:00 +18°C° 1 mm 1 mps 673 mmHg 90%
    23:00 +16°C° 1 mm 1 mps 673 mmHg 91%
    Show more